This demonstration page uses our WeatherBlox Daily Observations layout. Learn more.

Left ArrowRight Arrow

39.12711, -84.51439

Hourly Observations for September 12, 2016

Temp ( °F °C ) Dew Point ( °F °C ) Humidity (%) Winds ( mph kmh ) Pressure ( in mb ) Visibility ( mi km ) Precip ( " mm )
12:53 am 00:53 Clear 57 13.9 57 13.9 100 100 Calm 30.18 1022 9 14 0.00 0.00
1:53 am 01:53 Clear 57 13.9 57 13.9 100 100 Calm 30.17 1022 9 14 0.00 0.00
2:53 am 02:53 Clear 56 13.3 56 13.3 100 100 Calm 30.16 1021 10 16 0.00 0.00
3:53 am 03:53 Clear 56 13.3 56 13.3 100 100 Calm 30.16 1022 10 16 0.00 0.00
4:45 am 04:45 Clear with Mist and Fog 55 12.8 55 12.8 100 100 Calm 30.18 1022 2 3 0.00 0.00
4:53 am 04:53 Clear 55 12.8 55 12.8 100 100 Calm 30.16 1022 9 14 0.00 0.00
5:21 am 05:21 Clear with Mist and Fog 55 12.8 55 12.8 100 100 Calm 30.18 1022 2 3 0.00 0.00
5:28 am 05:28 Clear with Mist and Fog 55 12.8 55 12.8 100 100 Calm 30.18 1022 3 5 0.00 0.00
5:53 am 05:53 Clear 55 12.8 55 12.8 100 100 Calm 30.17 1022 9 14 0.00 0.00
6:53 am 06:53 Clear with Patchy Fog 54 12.2 54 12.2 100 100 Calm 30.18 1022 10 16 0.00 0.00
7:53 am 07:53 Sunny 55 12.8 55 12.8 100 100 Calm 30.19 1022 10 16 0.00 0.00
8:53 am 08:53 Sunny 59 15 58 14.4 96 96 NNE 3 6 30.19 1023 10 16 0.00 0.00
9:53 am 09:53 Sunny 64 17.8 59 15 84 84 Calm 30.20 1023 10 16 0.00 0.00
10:53 am 10:53 Sunny 70 21.1 61 16.1 73 73 NE 3 6 30.19 1023 10 16 0.00 0.00
11:53 am 11:53 Sunny 76 24.4 60 15.6 58 58 Calm 30.18 1022 10 16 0.00 0.00
12:53 pm 12:53 Mostly Sunny 78 25.6 58 14.4 50 50 Calm 30.16 1021 10 16 0.00 0.00
1:53 pm 13:53 Sunny 79 26.1 57 13.9 47 47 Calm 30.14 1021 10 16 0.00 0.00
2:53 pm 14:53 Sunny 78 25.6 59 15 52 52 WSW 8 13 30.13 1020 10 16 0.00 0.00
3:53 pm 15:53 Sunny 81 27.2 58 14.4 45 45 VRB 3 6 30.11 1020 10 16 0.00 0.00
4:53 pm 16:53 Sunny 80 26.7 58 14.4 47 47 Calm 30.09 1019 10 16 0.00 0.00
5:53 pm 17:53 Sunny 81 27.2 57 13.9 44 44 N 3 6 30.09 1019 10 16 0.00 0.00
6:53 pm 18:53 Sunny 77 25 59 15 54 54 Calm 30.07 1018 10 16 0.00 0.00
7:53 pm 19:53 Clear 69 20.6 62 16.7 78 78 Calm 30.09 1019 10 16 0.00 0.00
8:53 pm 20:53 Clear 65 18.3 62 16.7 90 90 ENE 3 6 30.09 1019 10 16 0.00 0.00
9:53 pm 21:53 Clear 62 16.7 61 16.1 96 96 Calm 30.11 1020 10 16 0.00 0.00
10:53 pm 22:53 Clear 60 15.6 60 15.6 100 100 Calm 30.11 1020 10 16 0.00 0.00
11:53 pm 23:53 Clear 59 15 59 15 100 100 Calm 30.10 1019 10 16 0.00 0.00

Powered by AerisWeather